164  
ASUS41 KLWX 202212  
RWRLWX  
 
REGIONAL WEATHER ROUNDUP  
NATIONAL WEATHER SERVICE BALTIMORE MD/WASHINGTON DC  
600 PM EDT WED OCT 20 2021  
 
NOTE: "FAIR" INDICATES FEW OR NO CLOUDS BELOW 12,000 FEET  
WITH NO SIGNIFICANT WEATHER AND/OR S TO VISIBILITY
.  
TC=TEMPERATURE CELSIUS  
 
* =NON NWS SITE. STATION DOES NOT REPORT PRECIPITATION (E.G. RAIN,  
SNOW, ETC.), THUNDER, OR FOG.
 
 
DCZ001-MDZ009-015-VAZ040>042-051-053>054-202300-  
WASHINGTON METRO  
 
CITY SKY/WX TMP DP RH WIND PRES REMARKS
 
WASHINGTON NAT CLEAR 74 46 36 SW7 30.09S  
DULLES CLEAR 73 48 41 W3 30.09S  
ANDREWS AFB CLEAR 72 47 40 W8 30.07S  
FT BELVOIR CLEAR 73 51 45 CALM 30.08F  
QUANTICO CLEAR 74 45 35 SW5 30.10S  
COLLEGE PARK* CLEAR 71 43 35 CALM 30.08S  
LEESBURG* CLEAR 72 52 49 SW5 30.10S  
MANASSAS* CLEAR 73 48 41 CALM 30.09F  
GAITHERSBURG* CLEAR 70 50 49 W6 30.10S  
 

 
 
MDZ006>007-011-014-202300-  
BALTIMORE METRO  
 
CITY SKY/WX TMP DP RH WIND PRES REMARKS
 
BWI AIRPORT PTCLDY 73 47 39 W8 30.07S  
MARTIN STATE CLEAR N/A N/A N/A W7 30.08S  
ANNAPOLIS CLEAR 73 48 41 W6 30.07S  
ABERDEEN* CLEAR 69 49 49 W6 30.04R  
FORT MEADE* CLEAR 64 55 72 W6 30.11R  
 

 
 
MDZ012-015-019>023-202300-  
MARYLAND EASTERN SHORE  
 
CITY SKY/WX TMP DP RH WIND PRES REMARKS
 
OCEAN CITY CLEAR 70 53 54 W3 30.09R  
SALISBURY CLEAR 70 52 52 SW9 30.08S  
CAMBRIDGE* CLEAR 70 52 52 CALM 30.09S  
EASTON* CLEAR 73 52 46 CALM 30.12R  
 

 
 
MDZ017>025-202300-  
SOUTHERN MARYLAND  
 
CITY SKY/WX TMP DP RH WIND PRES REMARKS
 
PATUXENT RIVER CLEAR 72 50 45 W6 30.09S  
ST INIGOES CLEAR 74 52 46 CALM 30.09S  
LEONARDTOWN* CLEAR 72 52 49 CALM 30.11S  
 

 
 
MDZ003>005-202300-  
NORTH CENTRAL MARYLAND  
 
CITY SKY/WX TMP DP RH WIND PRES REMARKS
 
FREDERICK* CLEAR 75 48 38 W5 30.08F  
HAGERSTOWN APT CLEAR 72 46 39 SW6 30.07F  
WESTMINSTER* CLEAR 72 48 43 W3 30.09S  
 

 
 
MDZ501>502-202300-  
WESTERN MARYLAND  
 
CITY SKY/WX TMP DP RH WIND PRES REMARKS
 
OAKLAND* CLEAR 59 39 47 SW7 30.16S  
CUMBERLAND* CLEAR 69 46 42 SW5 30.13S  
 

 
 
VAZ025>031-202300-  
SHENANDOAH VALLEY  
 
CITY SKY/WX TMP DP RH WIND PRES REMARKS
 
WINCHESTER* CLEAR 68 50 52 S5 30.08S  
FRONT ROYAL* CLEAR 70 50 49 MISG 30.09S  
LURAY* CLEAR 70 50 49 CALM 30.11S  
NEW MARKET* CLEAR 65 53 64 CALM 30.10S  
STAUNTON* CLEAR 70 47 44 S6 30.13S  
WAYNESBORO* CLEAR 68 47 46 S5 30.13S  
 

 
 
WVZ021-048>050-054>055-202300-  
EASTERN WEST VIRGINIA PANHANDLE  
 
CITY SKY/WX TMP DP RH WIND PRES REMARKS
 
MARTINSBURG CLEAR 70 44 39 W5 30.07F  
PETERSBURG* CLEAR 68 50 53 W5 30.11R  
 

 
 
VAZ036>039-050-202300-  
CENTRAL FOOTHILLS  
 
CITY SKY/WX TMP DP RH WIND PRES REMARKS
 
CHARLOTTESVILL CLEAR 72 48 42 S5 30.10F  
CULPEPER* CLEAR 73 47 38 CALM 30.10F  
ORANGE* CLEAR 70 50 49 CALM 30.10F  
GORDONSVILLE* CLEAR 67 51 55 CALM 30.10S  
WARRENTON* CLEAR 69 50 51 CALM 30.09F  
 

 
 
VAZ055>057-202300-  
NORTH AND CENTRAL PIEDMONT  
 
CITY SKY/WX TMP DP RH WIND PRES REMARKS
 
FREDERICKSBRG* CLEAR 71 51 50 S3 30.08F  
STAFFORD* CLEAR 73 43 33 CALM 30.14S  
 

 
 
NCZ024-NYZ072-PAZ021-071-VAZ022-071-202300-  
OTHER REGIONAL OBSERVATIONS  
 
CITY SKY/WX TMP DP RH WIND PRES REMARKS
 
NEW YORK CITY CLEAR 73 46 38 CALM 30.01S  
PHILADELPHIA CLEAR 73 48 41 W12 30.04S  
PITTSBURGH PTCLDY 68 45 43 SW6 30.10S  
ROANOKE CLEAR 75 44 33 CALM 30.16F  
RICHMOND CLEAR 69 50 50 SW7 30.11F  
RALEIGH PTCLDY 74 50 42 W6 30.16S  
 

 
 
ANZ530>537-202300-  
MARINE OBSERVATIONS  
 
STATION/POSITION TIME TEMP WIND PRES
 
AIR SEA DIR/SP/G  
(UTC) (F) (DEG/KT/KT) (MB)  
THOMAS PT LIGHT 2200 73 68 220/ 5/ 6 1019.4R  
TOLCHESTER 2130 70 66 240/ 4/ 5 1018.2S  
GOOSES REEF 2154 69 68 230/ 6/ 8 1020.1S  
COVE POINT 2124 73 230/ 6/ 8 1019.0  
BALT HARBOR 2124 75 72 250/ 4/ 8 1017.6  
BALT KEY BRIDGE 2124 74 280/ 11/ 14 1018.0  
WASH DC CHANNEL 2124 76 67 260/ 5/ 8 1018.3  
DAHLGREN 2124 74 67 240/ 1/ 2 1018.5  
LEWISETTA 2124 74 66 250/ 5/ 6 1019.3  
SOLOMONS ISLAND 2124 74 70 260/ 5/ 9 1018.8  
PINEY POINT 2130 320/ 3/ 3 N/A  
POTOMAC BUOY 2154 69 68 240/ 2/ 2 1020.0F  
CAMBRIDGE PIER 2130 74 66 240/ 5/ 7 1018.6F  
BISHOPS HEAD 2130 70 65 260/ 11/ 12 1019.1F  
CHESAPEAKE CITY 2130 74 65 260/ 3/ 5 1017.7S  
 

 
 
 
 
CLICK HERE TO GO TO PREVIOUS BULLETINS.

The Nexlab VA Page
The Nexlab MD Page
The Nexlab WV Page Main Text Page